Time,TemperatureF,DewpointF,PressureIn,WindDirection,WindDirectionDegrees,WindSpeedMPH,WindSpeedGustMPH,Humidity,HourlyPrecipIn,Conditions,Clouds,dailyrainin,SoftwareType,DateUTC
2013-04-03 00:00:00,46.8,19.2,29.15,NNE,19,4.3,4.3,33,0.00,,SKC,0.00,VWS V14.00,2013-04-03 04:00:00,
2013-04-03 00:05:00,46.8,19.2,29.15,NE,40,0.0,3.6,33,0.00,,SKC,0.00,VWS V14.00,2013-04-03 04:05:00,
2013-04-03 00:10:00,46.4,18.2,29.15,NE,38,0.0,3.6,32,0.00,,SKC,0.00,VWS V14.00,2013-04-03 04:10:00,
2013-04-03 00:15:00,46.2,18.7,29.15,NE,36,0.0,0.0,33,0.00,,SKC,0.00,VWS V14.00,2013-04-03 04:15:00,
2013-04-03 00:20:00,46.2,18.0,29.15,ESE,110,0.0,3.1,32,0.00,,SKC,0.00,VWS V14.00,2013-04-03 04:20:00,
2013-04-03 00:25:00,46.0,17.9,29.15,NNE,19,0.0,0.0,32,0.00,,SKC,0.00,VWS V14.00,2013-04-03 04:25:00,
2013-04-03 00:30:00,46.0,17.9,29.15,NNE,25,0.0,0.0,32,0.00,,SKC,0.00,VWS V14.00,2013-04-03 04:30:00,
2013-04-03 00:35:00,45.9,17.7,29.15,NNE,31,0.0,0.0,32,0.00,,SKC,0.00,VWS V14.00,2013-04-03 04:35:00,
2013-04-03 00:40:00,45.7,17.5,29.15,NNE,32,0.0,0.0,32,0.00,,SKC,0.00,VWS V14.00,2013-04-03 04:40:00,
2013-04-03 00:45:00,45.5,18.1,29.15,NNE,33,0.0,0.0,33,0.00,,SKC,0.00,VWS V14.00,2013-04-03 04:45:00,
2013-04-03 00:51:00,45.3,17.9,29.15,NNE,32,0.0,0.0,33,0.00,,SKC,0.00,VWS V14.00,2013-04-03 04:51:00,
2013-04-03 00:56:00,45.3,17.9,29.15,NNE,32,0.0,0.0,33,0.00,,SKC,0.00,VWS V14.00,2013-04-03 04:56:00,
2013-04-03 01:01:00,45.1,17.8,29.15,NNE,32,0.0,0.0,33,0.00,,SKC,0.00,VWS V14.00,2013-04-03 05:01:00,
2013-04-03 01:06:00,45.0,17.6,29.18,NNE,32,0.0,0.0,33,0.00,,SKC,0.00,VWS V14.00,2013-04-03 05:06:00,
2013-04-03 01:11:00,44.8,18.1,29.18,NNE,32,0.0,0.0,34,0.00,,SKC,0.00,VWS V14.00,2013-04-03 05:11:00,
2013-04-03 01:16:00,44.6,18.0,29.18,NNE,33,0.0,0.0,34,0.00,,SKC,0.00,VWS V14.00,2013-04-03 05:16:00,
2013-04-03 01:21:00,44.6,18.0,29.15,NNE,32,0.0,0.0,34,0.00,,SKC,0.00,VWS V14.00,2013-04-03 05:21:00,
2013-04-03 01:26:00,44.2,18.3,29.15,NE,36,0.0,0.0,35,0.00,,SKC,0.00,VWS V14.00,2013-04-03 05:26:00,
2013-04-03 01:31:00,44.1,17.5,29.15,NE,47,0.0,0.0,34,0.00,,SKC,0.00,VWS V14.00,2013-04-03 05:31:00,
2013-04-03 01:36:00,44.1,17.5,29.15,NNE,27,0.0,4.0,34,0.00,,SKC,0.00,VWS V14.00,2013-04-03 05:36:00,
2013-04-03 01:41:00,44.1,17.5,29.15,NNE,30,0.0,0.0,34,0.00,,SKC,0.00,VWS V14.00,2013-04-03 05:41:00,
2013-04-03 01:46:00,43.9,17.4,29.15,NE,34,0.0,0.0,34,0.00,,SKC,0.00,VWS V14.00,2013-04-03 05:46:00,
2013-04-03 01:51:00,43.7,17.2,29.15,ENE,60,0.0,0.0,34,0.00,,SKC,0.00,VWS V14.00,2013-04-03 05:51:00,
2013-04-03 01:56:00,43.5,17.0,29.15,NE,47,0.0,0.0,34,0.00,,SKC,0.00,VWS V14.00,2013-04-03 05:56:00,
2013-04-03 02:01:00,43.5,17.0,29.15,NE,50,0.0,0.0,34,0.00,,SKC,0.00,VWS V14.00,2013-04-03 06:01:00,
2013-04-03 02:10:00,43.2,16.7,29.15,NE,53,0.0,0.0,34,0.00,,SKC,0.00,VWS V14.00,2013-04-03 06:10:00,
2013-04-03 02:16:00,43.0,16.5,29.15,NE,38,0.0,0.0,34,0.00,,SKC,0.00,VWS V14.00,2013-04-03 06:16:00,
2013-04-03 02:21:00,42.6,16.2,29.15,NE,38,0.0,0.0,34,0.00,,SKC,0.00,VWS V14.00,2013-04-03 06:21:00,
2013-04-03 02:26:00,42.3,15.9,29.15,NE,38,0.0,0.0,34,0.00,,SKC,0.00,VWS V14.00,2013-04-03 06:26:00,
2013-04-03 02:31:00,42.1,15.8,29.15,NE,45,0.0,0.0,34,0.00,,SKC,0.00,VWS V14.00,2013-04-03 06:31:00,
2013-04-03 02:36:00,41.9,15.6,29.15,NE,44,0.0,0.0,34,0.00,,SKC,0.00,VWS V14.00,2013-04-03 06:36:00,
2013-04-03 02:41:00,41.7,16.1,29.15,NE,44,0.0,0.0,35,0.00,,SKC,0.00,VWS V14.00,2013-04-03 06:41:00,
2013-04-03 02:46:00,41.7,16.1,29.15,NE,46,0.0,0.0,35,0.00,,SKC,0.00,VWS V14.00,2013-04-03 06:46:00,
2013-04-03 02:51:00,41.7,16.1,29.15,NNE,16,0.0,0.0,35,0.00,,SKC,0.00,VWS V14.00,2013-04-03 06:51:00,
2013-04-03 02:56:00,42.1,16.4,29.15,NE,48,0.0,3.6,35,0.00,,SKC,0.00,VWS V14.00,2013-04-03 06:56:00,
2013-04-03 03:01:00,42.1,16.4,29.15,NNE,17,4.8,4.8,35,0.00,,SKC,0.00,VWS V14.00,2013-04-03 07:01:00,
2013-04-03 03:06:00,42.3,16.6,29.15,NNE,23,0.0,4.0,35,0.00,,SKC,0.00,VWS V14.00,2013-04-03 07:06:00,
2013-04-03 03:11:00,42.4,16.7,29.15,NNE,28,0.0,0.0,35,0.00,,SKC,0.00,VWS V14.00,2013-04-03 07:11:00,
2013-04-03 03:16:00,42.4,16.7,29.15,NNE,28,0.0,0.0,35,0.00,,SKC,0.00,VWS V14.00,2013-04-03 07:16:00,
2013-04-03 03:21:00,42.4,16.7,29.15,NE,38,0.0,0.0,35,0.00,,SKC,0.00,VWS V14.00,2013-04-03 07:21:00,
2013-04-03 03:27:00,42.4,16.7,29.15,NNE,15,0.0,4.0,35,0.00,,SKC,0.00,VWS V14.00,2013-04-03 07:27:00,
2013-04-03 03:32:00,42.6,16.9,29.15,NNE,30,0.0,0.0,35,0.00,,SKC,0.00,VWS V14.00,2013-04-03 07:32:00,
2013-04-03 03:37:00,42.6,16.9,29.15,NNE,32,0.0,2.7,35,0.00,,SKC,0.00,VWS V14.00,2013-04-03 07:37:00,
2013-04-03 03:42:00,42.4,16.7,29.15,NE,35,0.0,0.0,35,0.00,,SKC,0.00,VWS V14.00,2013-04-03 07:42:00,
2013-04-03 03:47:00,42.3,16.6,29.15,NNE,21,0.0,0.0,35,0.00,,SKC,0.00,VWS V14.00,2013-04-03 07:47:00,
2013-04-03 03:52:00,42.3,16.6,29.15,North,5,0.0,0.0,35,0.00,,SKC,0.00,VWS V14.00,2013-04-03 07:52:00,
2013-04-03 03:57:00,42.3,16.6,29.15,NE,37,0.0,0.0,35,0.00,,SKC,0.00,VWS V14.00,2013-04-03 07:57:00,
2013-04-03 04:02:00,42.3,16.6,29.15,NE,37,0.0,0.0,35,0.00,,SKC,0.00,VWS V14.00,2013-04-03 08:02:00,
2013-04-03 04:07:00,41.9,16.3,29.15,NNE,25,0.0,0.0,35,0.00,,SKC,0.00,VWS V14.00,2013-04-03 08:07:00,
2013-04-03 04:12:00,41.7,16.1,29.15,NNE,25,0.0,0.0,35,0.00,,SKC,0.00,VWS V14.00,2013-04-03 08:12:00,
2013-04-03 04:17:00,41.4,15.8,29.15,NNE,25,0.0,0.0,35,0.00,,SKC,0.00,VWS V14.00,2013-04-03 08:17:00,
2013-04-03 04:22:00,41.2,15.6,29.15,NNE,29,0.0,0.0,35,0.00,,SKC,0.00,VWS V14.00,2013-04-03 08:22:00,
2013-04-03 04:27:00,41.0,15.5,29.15,NNE,26,0.0,0.0,35,0.00,,SKC,0.00,VWS V14.00,2013-04-03 08:27:00,
2013-04-03 04:37:00,40.8,15.3,29.15,NNE,29,2.7,3.1,35,0.00,,SKC,0.00,VWS V14.00,2013-04-03 08:37:00,
2013-04-03 04:42:00,40.8,15.3,29.15,NNE,27,4.8,4.8,35,0.00,,SKC,0.00,VWS V14.00,2013-04-03 08:42:00,
2013-04-03 04:47:00,40.6,15.1,29.15,NNE,24,0.0,4.0,35,0.00,,SKC,0.00,VWS V14.00,2013-04-03 08:47:00,
2013-04-03 04:52:00,40.5,15.0,29.15,NNE,30,0.0,4.0,35,0.00,,SKC,0.00,VWS V14.00,2013-04-03 08:52:00,
2013-04-03 04:57:00,40.3,14.8,29.15,NNE,31,0.0,4.0,35,0.00,,SKC,0.00,VWS V14.00,2013-04-03 08:57:00,
2013-04-03 05:02:00,39.9,14.5,29.12,NNE,29,0.0,0.0,35,0.00,,SKC,0.00,VWS V14.00,2013-04-03 09:02:00,
2013-04-03 05:07:00,39.6,14.2,29.12,South,184,0.0,0.0,35,0.00,,SKC,0.00,VWS V14.00,2013-04-03 09:07:00,
2013-04-03 05:17:00,39.2,13.9,29.12,NNE,21,0.0,0.0,35,0.00,,SKC,0.00,VWS V14.00,2013-04-03 09:17:00,
2013-04-03 05:22:00,39.0,14.3,29.12,NE,36,0.0,0.0,36,0.00,,SKC,0.00,VWS V14.00,2013-04-03 09:22:00,
2013-04-03 05:27:00,38.8,14.2,29.12,NNE,32,0.0,0.0,36,0.00,,SKC,0.00,VWS V14.00,2013-04-03 09:27:00,
2013-04-03 05:32:00,38.8,14.2,29.12,NNE,20,0.0,0.0,36,0.00,,SKC,0.00,VWS V14.00,2013-04-03 09:32:00,
2013-04-03 05:37:00,38.7,14.0,29.12,North,4,0.0,0.0,36,0.00,,SKC,0.00,VWS V14.00,2013-04-03 09:37:00,
2013-04-03 05:42:00,38.7,14.0,29.12,North,4,0.0,0.0,36,0.00,,SKC,0.00,VWS V14.00,2013-04-03 09:42:00,
2013-04-03 05:48:00,38.5,13.9,29.15,NNE,24,0.0,0.0,36,0.00,,SKC,0.00,VWS V14.00,2013-04-03 09:48:00,
2013-04-03 05:53:00,38.3,13.7,29.15,NNE,24,0.0,0.0,36,0.00,,SKC,0.00,VWS V14.00,2013-04-03 09:53:00,
2013-04-03 05:58:00,38.1,13.5,29.15,NNE,24,0.0,0.0,36,0.00,,SKC,0.00,VWS V14.00,2013-04-03 09:58:00,
2013-04-03 06:03:00,38.1,13.5,29.15,NNE,25,0.0,0.0,36,0.00,,SKC,0.00,VWS V14.00,2013-04-03 10:03:00,
2013-04-03 06:08:00,37.6,13.1,29.15,NNE,33,3.2,3.2,36,0.00,,SKC,0.00,VWS V14.00,2013-04-03 10:08:00,
2013-04-03 06:13:00,37.8,13.2,29.15,North,7,2.7,3.1,36,0.00,,SKC,0.00,VWS V14.00,2013-04-03 10:13:00,
2013-04-03 06:18:00,37.9,14.0,29.15,North,353,0.0,4.9,37,0.00,,SKC,0.00,VWS V14.00,2013-04-03 10:18:00,
2013-04-03 06:23:00,38.1,13.5,29.15,NE,39,0.0,3.6,36,0.00,,SKC,0.00,VWS V14.00,2013-04-03 10:23:00,
2013-04-03 06:28:00,38.1,14.2,29.15,NNE,19,0.0,3.6,37,0.00,,SKC,0.00,VWS V14.00,2013-04-03 10:28:00,
2013-04-03 06:33:00,38.1,13.5,29.15,NE,35,0.0,3.1,36,0.00,,SKC,0.00,VWS V14.00,2013-04-03 10:33:00,
2013-04-03 06:38:00,38.1,13.5,29.15,North,353,0.0,5.8,36,0.00,,SKC,0.00,VWS V14.00,2013-04-03 10:38:00,
2013-04-03 06:43:00,38.1,13.5,29.15,NNE,30,0.0,0.0,36,0.00,,SKC,0.00,VWS V14.00,2013-04-03 10:43:00,
2013-04-03 06:48:00,38.1,13.5,29.15,NNE,27,3.2,3.2,36,0.00,,SKC,0.00,VWS V14.00,2013-04-03 10:48:00,
2013-04-03 06:53:00,38.1,13.5,29.15,NNE,29,0.0,0.0,36,0.00,,SKC,0.00,VWS V14.00,2013-04-03 10:53:00,
2013-04-03 06:58:00,37.9,13.4,29.15,NNE,15,0.0,2.2,36,0.00,,SKC,0.00,VWS V14.00,2013-04-03 10:58:00,
2013-04-03 07:03:00,37.8,13.2,29.15,NE,43,0.0,3.6,36,0.00,,SKC,0.00,VWS V14.00,2013-04-03 11:03:00,
2013-04-03 07:08:00,37.6,13.1,29.15,NNE,24,0.0,4.9,36,0.00,,SKC,0.00,VWS V14.00,2013-04-03 11:08:00,
2013-04-03 07:13:00,37.6,13.1,29.15,NE,44,0.0,0.0,36,0.00,,SKC,0.00,VWS V14.00,2013-04-03 11:13:00,
2013-04-03 07:18:00,37.4,13.5,29.18,NE,36,3.2,5.4,37,0.00,,SKC,0.00,VWS V14.00,2013-04-03 11:18:00,
2013-04-03 07:23:00,37.4,13.5,29.18,North,357,0.0,2.2,37,0.00,,SKC,0.00,VWS V14.00,2013-04-03 11:23:00,
2013-04-03 07:28:00,37.4,13.5,29.18,NNE,25,0.0,4.9,37,0.00,,SKC,0.00,VWS V14.00,2013-04-03 11:28:00,
2013-04-03 07:33:00,37.2,14.0,29.18,NE,38,3.8,4.0,38,0.00,,SKC,0.00,VWS V14.00,2013-04-03 11:33:00,
2013-04-03 07:38:00,37.0,13.8,29.18,NNE,33,3.8,4.0,38,0.00,,SKC,0.00,VWS V14.00,2013-04-03 11:38:00,
2013-04-03 07:43:00,37.0,13.8,29.18,NNE,22,0.0,0.0,38,0.00,,SKC,0.00,VWS V14.00,2013-04-03 11:43:00,
2013-04-03 07:48:00,37.4,14.1,29.21,NNE,29,0.0,3.1,38,0.00,,SKC,0.00,VWS V14.00,2013-04-03 11:48:00,
2013-04-03 07:53:00,37.6,14.9,29.21,North,2,0.0,4.9,39,0.00,,SKC,0.00,VWS V14.00,2013-04-03 11:53:00,
2013-04-03 07:58:00,38.1,15.4,29.21,NE,44,4.8,4.9,39,0.00,,SKC,0.00,VWS V14.00,2013-04-03 11:58:00,
2013-04-03 08:03:00,38.5,15.7,29.21,NNW,330,0.0,3.6,39,0.00,,SKC,0.00,VWS V14.00,2013-04-03 12:03:00,
2013-04-03 08:08:00,38.8,16.0,29.21,NNE,19,0.0,3.6,39,0.00,,SKC,0.00,VWS V14.00,2013-04-03 12:08:00,
2013-04-03 08:13:00,39.0,16.2,29.21,NNE,30,0.0,0.0,39,0.00,,SKC,0.00,VWS V14.00,2013-04-03 12:13:00,
2013-04-03 08:18:00,39.2,16.3,29.21,NNE,18,0.0,5.4,39,0.00,,SKC,0.00,VWS V14.00,2013-04-03 12:18:00,
2013-04-03 08:23:00,39.6,16.7,29.21,WNW,297,4.8,6.3,39,0.00,,SKC,0.00,VWS V14.00,2013-04-03 12:23:00,
2013-04-03 08:28:00,39.7,16.8,29.21,NE,37,3.8,6.3,39,0.00,,SKC,0.00,VWS V14.00,2013-04-03 12:28:00,
2013-04-03 08:33:00,39.7,16.8,29.21,NNE,16,0.0,3.6,39,0.00,,SKC,0.00,VWS V14.00,2013-04-03 12:33:00,
2013-04-03 08:38:00,39.9,16.4,29.21,NNE,33,4.3,4.3,38,0.00,,SKC,0.00,VWS V14.00,2013-04-03 12:38:00,
2013-04-03 08:43:00,40.1,17.1,29.21,North,8,0.0,4.0,39,0.00,,SKC,0.00,VWS V14.00,2013-04-03 12:43:00,
2013-04-03 08:48:00,40.3,17.3,29.21,NNE,33,0.0,4.9,39,0.00,,SKC,0.00,VWS V14.00,2013-04-03 12:48:00,
2013-04-03 08:58:00,40.8,17.8,29.21,NNE,20,3.8,5.4,39,0.00,,SKC,0.00,VWS V14.00,2013-04-03 12:58:00,
2013-04-03 09:03:00,41.2,17.5,29.21,NE,42,3.8,5.4,38,0.00,,SKC,0.00,VWS V14.00,2013-04-03 13:03:00,
2013-04-03 09:08:00,41.7,18.0,29.21,NNE,30,0.0,5.4,38,0.00,,SKC,0.00,VWS V14.00,2013-04-03 13:08:00,
2013-04-03 09:13:00,42.1,18.3,29.21,NNE,29,4.3,4.3,38,0.00,,SKC,0.00,VWS V14.00,2013-04-03 13:13:00,
2013-04-03 09:18:00,42.4,18.6,29.21,NNE,31,3.2,6.3,38,0.00,,SKC,0.00,VWS V14.00,2013-04-03 13:18:00,
2013-04-03 09:23:00,43.0,18.5,29.21,ENE,65,4.8,4.9,37,0.00,,SKC,0.00,VWS V14.00,2013-04-03 13:23:00,
2013-04-03 09:28:00,43.3,18.8,29.21,North,353,4.3,7.6,37,0.00,,SKC,0.00,VWS V14.00,2013-04-03 13:28:00,
2013-04-03 09:33:00,43.9,19.3,29.21,NNE,30,4.8,6.3,37,0.00,,SKC,0.00,VWS V14.00,2013-04-03 13:33:00,
2013-04-03 09:38:00,44.6,19.3,29.21,NE,48,5.9,8.7,36,0.00,,SKC,0.00,VWS V14.00,2013-04-03 13:38:00,
2013-04-03 09:43:00,45.0,19.0,29.21,ENE,68,5.9,8.7,35,0.00,,SKC,0.00,VWS V14.00,2013-04-03 13:43:00,
2013-04-03 09:48:00,45.3,19.3,29.21,NE,48,3.2,8.7,35,0.00,,SKC,0.00,VWS V14.00,2013-04-03 13:48:00,
2013-04-03 09:53:00,45.7,18.9,29.21,North,0,4.3,8.7,34,0.00,,SKC,0.00,VWS V14.00,2013-04-03 13:53:00,
2013-04-03 09:58:00,45.9,19.1,29.21,NE,40,3.8,8.7,34,0.00,,SKC,0.00,VWS V14.00,2013-04-03 13:58:00,
2013-04-03 10:03:00,45.9,19.1,29.21,NE,36,7.0,7.0,34,0.00,,SKC,0.00,VWS V14.00,2013-04-03 14:03:00,
2013-04-03 10:08:00,46.2,18.7,29.21,NNE,29,12.1,12.1,33,0.00,,SKC,0.00,VWS V14.00,2013-04-03 14:08:00,
2013-04-03 10:13:00,46.4,18.9,29.21,North,10,5.9,9.6,33,0.00,,SKC,0.00,VWS V14.00,2013-04-03 14:13:00,
2013-04-03 10:18:00,46.4,18.9,29.21,North,8,2.7,9.6,33,0.00,,SKC,0.00,VWS V14.00,2013-04-03 14:18:00,
2013-04-03 10:23:00,46.8,19.2,29.21,SE,127,4.8,5.4,33,0.00,,SKC,0.00,VWS V14.00,2013-04-03 14:23:00,
2013-04-03 10:28:00,47.1,19.5,29.21,SE,127,5.9,10.1,33,0.00,,SKC,0.00,VWS V14.00,2013-04-03 14:28:00,
2013-04-03 10:33:00,47.3,19.7,29.21,NE,36,9.9,9.9,33,0.00,,SKC,0.00,VWS V14.00,2013-04-03 14:33:00,
2013-04-03 10:38:00,47.7,19.3,29.21,NNE,21,5.9,8.7,32,0.00,,SKC,0.00,VWS V14.00,2013-04-03 14:38:00,
2013-04-03 10:44:00,47.7,19.3,29.21,NW,312,4.3,8.1,32,0.00,,SKC,0.00,VWS V14.00,2013-04-03 14:44:00,
2013-04-03 10:49:00,48.0,18.8,29.21,NW,317,3.8,8.1,31,0.00,,SKC,0.00,VWS V14.00,2013-04-03 14:49:00,
2013-04-03 10:54:00,48.2,19.0,29.21,NNE,21,6.4,10.5,31,0.00,,SKC,0.00,VWS V14.00,2013-04-03 14:54:00,
2013-04-03 10:59:00,48.4,19.2,29.21,NE,38,7.0,10.5,31,0.00,,SKC,0.00,VWS V14.00,2013-04-03 14:59:00,
2013-04-03 11:04:00,48.6,19.3,29.21,NE,38,6.4,11.4,31,0.00,,SKC,0.00,VWS V14.00,2013-04-03 15:04:00,
2013-04-03 11:09:00,48.7,19.5,29.21,WNW,299,7.5,11.4,31,0.00,,SKC,0.00,VWS V14.00,2013-04-03 15:09:00,
2013-04-03 11:14:00,48.9,19.6,29.21,NNE,29,4.8,6.3,31,0.00,,SKC,0.00,VWS V14.00,2013-04-03 15:14:00,
2013-04-03 11:19:00,49.1,19.8,29.21,NNE,28,4.8,6.3,31,0.00,,SKC,0.00,VWS V14.00,2013-04-03 15:19:00,
2013-04-03 11:24:00,49.3,19.2,29.21,North,2,3.8,8.3,30,0.00,,SKC,0.00,VWS V14.00,2013-04-03 15:24:00,
2013-04-03 11:29:00,49.5,19.3,29.21,NNE,16,4.3,10.5,30,0.00,,SKC,0.00,VWS V14.00,2013-04-03 15:29:00,
2013-04-03 11:34:00,49.8,19.6,29.18,NE,46,9.1,9.1,30,0.00,,SKC,0.00,VWS V14.00,2013-04-03 15:34:00,
2013-04-03 11:39:00,50.2,20.0,29.18,North,0,2.7,8.1,30,0.00,,SKC,0.00,VWS V14.00,2013-04-03 15:39:00,
2013-04-03 11:44:00,50.7,19.6,29.18,NNE,27,4.8,8.7,29,0.00,,SKC,0.00,VWS V14.00,2013-04-03 15:44:00,
2013-04-03 11:49:00,50.9,20.6,29.18,NNE,22,4.3,10.1,30,0.00,,SKC,0.00,VWS V14.00,2013-04-03 15:49:00,
2013-04-03 11:54:00,51.3,20.1,29.18,NNE,21,4.3,8.7,29,0.00,,SKC,0.00,VWS V14.00,2013-04-03 15:54:00,
2013-04-03 11:59:00,51.3,20.1,29.18,ENE,59,6.4,8.7,29,0.00,,SKC,0.00,VWS V14.00,2013-04-03 15:59:00,
2013-04-03 12:04:00,51.3,20.1,29.21,NNE,15,9.7,11.0,29,0.00,,SKC,0.00,VWS V14.00,2013-04-03 16:04:00,
2013-04-03 12:09:00,51.6,20.4,29.21,NNE,14,7.5,11.0,29,0.00,,SKC,0.00,VWS V14.00,2013-04-03 16:09:00,
2013-04-03 12:14:00,51.8,19.8,29.21,NNE,22,4.3,8.7,28,0.00,,SKC,0.00,VWS V14.00,2013-04-03 16:14:00,
2013-04-03 12:19:00,52.2,20.9,29.21,West,277,3.2,10.1,29,0.00,,SKC,0.00,VWS V14.00,2013-04-03 16:19:00,
2013-04-03 12:24:00,52.7,21.4,29.21,NNE,27,4.3,4.9,29,0.00,,SKC,0.00,VWS V14.00,2013-04-03 16:24:00,
2013-04-03 12:29:00,53.2,21.8,29.21,NNW,342,7.0,8.1,29,0.00,,SKC,0.00,VWS V14.00,2013-04-03 16:29:00,
2013-04-03 12:34:00,53.1,21.7,29.21,NE,38,5.9,8.3,29,0.00,,SKC,0.00,VWS V14.00,2013-04-03 16:34:00,
2013-04-03 12:40:00,53.6,21.3,29.21,North,5,3.8,8.3,28,0.00,,SKC,0.00,VWS V14.00,2013-04-03 16:40:00,
2013-04-03 12:49:00,54.9,22.4,29.18,NNE,13,4.3,8.1,28,0.00,,SKC,0.00,VWS V14.00,2013-04-03 16:49:00,
2013-04-03 12:54:00,55.6,23.0,29.18,SW,235,0.0,7.6,28,0.00,,SKC,0.00,VWS V14.00,2013-04-03 16:54:00,
2013-04-03 12:59:00,55.6,23.0,29.18,North,349,4.8,7.6,28,0.00,,SKC,0.00,VWS V14.00,2013-04-03 16:59:00,
2013-04-03 13:04:00,55.4,22.9,29.21,West,278,5.9,7.6,28,0.00,,SKC,0.00,VWS V14.00,2013-04-03 17:04:00,
2013-04-03 13:10:00,55.9,23.3,29.21,WNW,285,7.0,7.6,28,0.00,,SKC,0.00,VWS V14.00,2013-04-03 17:10:00,
2013-04-03 13:15:00,55.9,22.5,29.21,NNE,20,3.8,5.4,27,0.00,,SKC,0.00,VWS V14.00,2013-04-03 17:15:00,
2013-04-03 13:20:00,55.9,22.5,29.18,North,8,2.7,5.8,27,0.00,,SKC,0.00,VWS V14.00,2013-04-03 17:20:00,
2013-04-03 13:25:00,56.3,22.8,29.18,South,187,5.9,8.7,27,0.00,,SKC,0.00,VWS V14.00,2013-04-03 17:25:00,
2013-04-03 13:30:00,56.3,22.8,29.18,NNW,327,0.0,8.7,27,0.00,,SKC,0.00,VWS V14.00,2013-04-03 17:30:00,
2013-04-03 13:35:00,56.7,23.1,29.18,NNE,19,3.2,6.3,27,0.00,,SKC,0.00,VWS V14.00,2013-04-03 17:35:00,
2013-04-03 13:40:00,56.8,23.2,29.18,ENE,57,3.8,8.3,27,0.00,,SKC,0.00,VWS V14.00,2013-04-03 17:40:00,
2013-04-03 13:45:00,57.0,23.4,29.18,WSW,250,3.2,6.3,27,0.00,,SKC,0.00,VWS V14.00,2013-04-03 17:45:00,
2013-04-03 13:50:00,57.4,23.7,29.18,NNE,20,3.2,6.3,27,0.00,,SKC,0.00,VWS V14.00,2013-04-03 17:50:00,
2013-04-03 13:55:00,57.4,22.8,29.18,West,281,3.2,5.4,26,0.00,,SKC,0.00,VWS V14.00,2013-04-03 17:55:00,
2013-04-03 14:00:00,57.4,22.8,29.18,NNE,17,2.7,8.3,26,0.00,,SKC,0.00,VWS V14.00,2013-04-03 18:00:00,
2013-04-03 14:05:00,57.6,23.0,29.18,NW,305,3.8,8.1,26,0.00,,SKC,0.00,VWS V14.00,2013-04-03 18:05:00,
2013-04-03 14:10:00,57.7,23.1,29.18,NNE,20,4.8,8.1,26,0.00,,SKC,0.00,VWS V14.00,2013-04-03 18:10:00,
2013-04-03 14:15:00,58.3,24.5,29.18,NE,35,7.0,7.0,27,0.00,,SKC,0.00,VWS V14.00,2013-04-03 18:15:00,
2013-04-03 14:20:00,58.8,24.0,29.18,North,0,2.7,2.7,26,0.00,,SKC,0.00,VWS V14.00,2013-04-03 18:20:00,
2013-04-03 14:25:00,58.8,24.0,29.18,North,0,0.0,8.7,26,0.00,,SKC,0.00,VWS V14.00,2013-04-03 18:25:00,
2013-04-03 14:30:00,59.2,24.3,29.18,North,8,3.8,3.8,26,0.00,,SKC,0.00,VWS V14.00,2013-04-03 18:30:00,
2013-04-03 14:35:00,59.5,24.6,29.18,NE,37,7.0,8.3,26,0.00,,SKC,0.00,VWS V14.00,2013-04-03 18:35:00,
2013-04-03 14:40:00,59.7,24.8,29.18,NE,47,3.2,8.3,26,0.00,,SKC,0.00,VWS V14.00,2013-04-03 18:40:00,
2013-04-03 14:45:00,59.7,24.8,29.18,SW,221,0.0,4.0,26,0.00,,SKC,0.00,VWS V14.00,2013-04-03 18:45:00,
2013-04-03 14:50:00,59.7,24.8,29.18,NNE,23,3.8,3.8,26,0.00,,SKC,0.00,VWS V14.00,2013-04-03 18:50:00,
2013-04-03 14:55:00,59.5,24.6,29.18,NNE,16,3.2,4.9,26,0.00,,SKC,0.00,VWS V14.00,2013-04-03 18:55:00,
2013-04-03 15:00:00,59.5,24.6,29.18,NNE,12,0.0,0.0,26,0.00,,SKC,0.00,VWS V14.00,2013-04-03 19:00:00,
2013-04-03 15:05:00,60.1,25.1,29.18,NNE,24,5.9,5.9,26,0.00,,SKC,0.00,VWS V14.00,2013-04-03 19:05:00,
2013-04-03 15:10:00,60.1,25.1,29.18,NE,54,0.0,0.0,26,0.00,,SKC,0.00,VWS V14.00,2013-04-03 19:10:00,
2013-04-03 15:15:00,59.9,25.0,29.18,ENE,57,2.7,4.5,26,0.00,,SKC,0.00,VWS V14.00,2013-04-03 19:15:00,
2013-04-03 15:20:00,59.5,23.7,29.18,East,93,3.2,4.9,25,0.00,,SKC,0.00,VWS V14.00,2013-04-03 19:20:00,
2013-04-03 15:25:00,59.5,23.7,29.18,North,353,6.4,8.1,25,0.00,,SKC,0.00,VWS V14.00,2013-04-03 19:25:00,
2013-04-03 15:30:00,59.7,23.9,29.18,NNE,27,2.7,5.4,25,0.00,,SKC,0.00,VWS V14.00,2013-04-03 19:30:00,
2013-04-03 15:35:00,59.9,24.0,29.18,NNE,19,2.7,5.8,25,0.00,,SKC,0.00,VWS V14.00,2013-04-03 19:35:00,
2013-04-03 15:40:00,59.9,24.0,29.18,NE,35,4.3,5.8,25,0.00,,SKC,0.00,VWS V14.00,2013-04-03 19:40:00,
2013-04-03 15:45:00,59.7,23.9,29.18,NE,43,4.8,5.8,25,0.00,,SKC,0.00,VWS V14.00,2013-04-03 19:45:00,
2013-04-03 15:50:00,59.7,23.9,29.18,NNW,340,2.7,3.6,25,0.00,,SKC,0.00,VWS V14.00,2013-04-03 19:50:00,
2013-04-03 15:56:00,59.5,23.7,29.18,North,357,2.7,8.7,25,0.00,,SKC,0.00,VWS V14.00,2013-04-03 19:56:00,
2013-04-03 16:01:00,59.4,23.6,29.18,North,349,4.8,8.1,25,0.00,,SKC,0.00,VWS V14.00,2013-04-03 20:01:00,
2013-04-03 16:06:00,59.4,23.6,29.18,NNE,16,6.4,8.1,25,0.00,,SKC,0.00,VWS V14.00,2013-04-03 20:06:00,
2013-04-03 16:16:00,59.4,23.6,29.18,South,191,0.0,4.9,25,0.00,,SKC,0.00,VWS V14.00,2013-04-03 20:16:00,
2013-04-03 16:26:00,59.4,23.6,29.18,NNE,26,0.0,4.0,25,0.00,,SKC,0.00,VWS V14.00,2013-04-03 20:26:00,
2013-04-03 16:31:00,59.2,23.4,29.18,NE,36,2.7,3.1,25,0.00,,SKC,0.00,VWS V14.00,2013-04-03 20:31:00,
2013-04-03 16:36:00,59.0,23.2,29.15,NNE,21,3.8,4.9,25,0.00,,SKC,0.00,VWS V14.00,2013-04-03 20:36:00,
2013-04-03 16:41:00,58.8,23.1,29.15,NE,39,0.0,0.0,25,0.00,,SKC,0.00,VWS V14.00,2013-04-03 20:41:00,
2013-04-03 16:46:00,58.8,23.1,29.15,North,8,3.2,5.8,25,0.00,,SKC,0.00,VWS V14.00,2013-04-03 20:46:00,
2013-04-03 16:51:00,58.6,22.9,29.15,NW,308,0.0,3.6,25,0.00,,SKC,0.00,VWS V14.00,2013-04-03 20:51:00,
2013-04-03 16:56:00,58.5,22.8,29.15,North,4,4.8,4.8,25,0.00,,SKC,0.00,VWS V14.00,2013-04-03 20:56:00,
2013-04-03 17:01:00,58.5,22.8,29.15,ENE,59,3.8,5.4,25,0.00,,SKC,0.00,VWS V14.00,2013-04-03 21:01:00,
2013-04-03 17:06:00,58.3,22.6,29.15,NNE,20,4.8,5.8,25,0.00,,SKC,0.00,VWS V14.00,2013-04-03 21:06:00,
2013-04-03 17:11:00,58.1,22.5,29.15,West,259,0.0,3.1,25,0.00,,SKC,0.00,VWS V14.00,2013-04-03 21:11:00,
2013-04-03 17:16:00,58.1,22.5,29.15,NNE,17,0.0,5.8,25,0.00,,SKC,0.00,VWS V14.00,2013-04-03 21:16:00,
2013-04-03 17:21:00,57.9,22.3,29.15,NE,36,3.2,7.6,25,0.00,,SKC,0.00,VWS V14.00,2013-04-03 21:21:00,
2013-04-03 17:26:00,57.7,22.2,29.15,NNE,33,3.8,7.6,25,0.00,,SKC,0.00,VWS V14.00,2013-04-03 21:26:00,
2013-04-03 17:31:00,57.7,22.2,29.15,NNE,20,4.8,4.8,25,0.00,,SKC,0.00,VWS V14.00,2013-04-03 21:31:00,
2013-04-03 17:36:00,57.6,22.0,29.15,NE,34,7.5,7.5,25,0.00,,SKC,0.00,VWS V14.00,2013-04-03 21:36:00,
2013-04-03 17:42:00,57.6,22.0,29.15,North,8,4.3,5.8,25,0.00,,SKC,0.00,VWS V14.00,2013-04-03 21:42:00,
2013-04-03 17:47:00,57.2,21.7,29.15,North,357,3.2,5.8,25,0.00,,SKC,0.00,VWS V14.00,2013-04-03 21:47:00,
2013-04-03 17:52:00,57.2,21.7,29.15,NNE,32,3.8,4.0,25,0.00,,SKC,0.00,VWS V14.00,2013-04-03 21:52:00,
2013-04-03 17:57:00,57.0,21.6,29.15,NNE,24,4.3,7.6,25,0.00,,SKC,0.00,VWS V14.00,2013-04-03 21:57:00,
2013-04-03 18:02:00,56.7,21.3,29.15,North,10,3.8,8.3,25,0.00,,SKC,0.00,VWS V14.00,2013-04-03 22:02:00,
2013-04-03 18:07:00,56.5,21.1,29.15,NE,38,3.2,8.3,25,0.00,,SKC,0.00,VWS V14.00,2013-04-03 22:07:00,
2013-04-03 18:12:00,56.3,21.0,29.15,NNE,24,0.0,4.5,25,0.00,,SKC,0.00,VWS V14.00,2013-04-03 22:12:00,
2013-04-03 18:17:00,56.3,21.0,29.15,North,7,10.5,10.5,25,0.00,,SKC,0.00,VWS V14.00,2013-04-03 22:17:00,
2013-04-03 18:22:00,56.1,21.7,29.15,North,11,4.3,4.5,26,0.00,,SKC,0.00,VWS V14.00,2013-04-03 22:22:00,
2013-04-03 18:27:00,55.9,21.6,29.15,NE,48,4.3,9.2,26,0.00,,SKC,0.00,VWS V14.00,2013-04-03 22:27:00,
2013-04-03 18:32:00,55.8,20.5,29.15,North,0,6.4,6.4,25,0.00,,SKC,0.00,VWS V14.00,2013-04-03 22:32:00,
2013-04-03 18:37:00,55.8,20.5,29.12,North,353,0.0,7.6,25,0.00,,SKC,0.00,VWS V14.00,2013-04-03 22:37:00,
2013-04-03 18:42:00,55.4,21.1,29.12,North,3,5.9,5.9,26,0.00,,SKC,0.00,VWS V14.00,2013-04-03 22:42:00,
2013-04-03 18:47:00,55.2,21.0,29.12,NNE,28,4.8,6.3,26,0.00,,SKC,0.00,VWS V14.00,2013-04-03 22:47:00,
2013-04-03 18:52:00,55.2,21.0,29.12,NE,36,4.8,4.9,26,0.00,,SKC,0.00,VWS V14.00,2013-04-03 22:52:00,
2013-04-03 18:57:00,55.0,20.8,29.12,NW,311,0.0,6.3,26,0.00,,SKC,0.00,VWS V14.00,2013-04-03 22:57:00,
2013-04-03 19:02:00,54.9,20.6,29.12,NNE,25,0.0,5.8,26,0.00,,SKC,0.00,VWS V14.00,2013-04-03 23:02:00,
2013-04-03 19:07:00,54.7,20.5,29.12,NW,311,2.7,5.8,26,0.00,,SKC,0.00,VWS V14.00,2013-04-03 23:07:00,
2013-04-03 19:12:00,54.5,20.3,29.12,NNE,14,3.2,3.6,26,0.00,,SKC,0.00,VWS V14.00,2013-04-03 23:12:00,
2013-04-03 19:17:00,54.3,20.2,29.12,NE,42,3.8,8.3,26,0.00,,SKC,0.00,VWS V14.00,2013-04-03 23:17:00,
2013-04-03 19:22:00,54.1,20.0,29.12,NNE,22,4.8,4.8,26,0.00,,SKC,0.00,VWS V14.00,2013-04-03 23:22:00,
2013-04-03 19:27:00,54.0,19.9,29.12,NNE,17,0.0,4.5,26,0.00,,SKC,0.00,VWS V14.00,2013-04-03 23:27:00,
2013-04-03 19:32:00,53.8,19.7,29.12,NE,37,0.0,3.1,26,0.00,,SKC,0.00,VWS V14.00,2013-04-03 23:32:00,
2013-04-03 19:37:00,53.6,19.6,29.12,NE,39,0.0,3.1,26,0.00,,SKC,0.00,VWS V14.00,2013-04-03 23:37:00,
2013-04-03 19:42:00,53.6,19.6,29.12,NW,326,4.8,4.8,26,0.00,,SKC,0.00,VWS V14.00,2013-04-03 23:42:00,
2013-04-03 19:47:00,53.4,20.3,29.12,NW,321,0.0,4.5,27,0.00,,SKC,0.00,VWS V14.00,2013-04-03 23:47:00,
2013-04-03 19:52:00,53.4,20.3,29.12,NNE,27,4.8,5.4,27,0.00,,SKC,0.00,VWS V14.00,2013-04-03 23:52:00,
2013-04-03 19:57:00,53.2,20.1,29.12,NNE,19,3.8,5.4,27,0.00,,SKC,0.00,VWS V14.00,2013-04-03 23:57:00,
2013-04-03 20:02:00,53.2,20.1,29.12,North,10,7.5,7.5,27,0.00,,SKC,0.00,VWS V14.00,2013-04-04 00:02:00,
2013-04-03 20:07:00,53.1,20.0,29.12,NNE,19,3.8,6.3,27,0.00,,SKC,0.00,VWS V14.00,2013-04-04 00:07:00,
2013-04-03 20:12:00,53.1,20.0,29.12,North,353,0.0,4.0,27,0.00,,SKC,0.00,VWS V14.00,2013-04-04 00:12:00,
2013-04-03 20:17:00,52.9,19.8,29.12,NE,37,3.8,5.8,27,0.00,,SKC,0.00,VWS V14.00,2013-04-04 00:17:00,
2013-04-03 20:22:00,52.7,19.7,29.12,NNE,15,2.7,4.9,27,0.00,,SKC,0.00,VWS V14.00,2013-04-04 00:22:00,
2013-04-03 20:27:00,52.5,19.5,29.12,NNE,22,3.8,4.9,27,0.00,,SKC,0.00,VWS V14.00,2013-04-04 00:27:00,
2013-04-03 20:32:00,52.5,19.5,29.12,NNE,19,3.2,3.2,27,0.00,,SKC,0.00,VWS V14.00,2013-04-04 00:32:00,
2013-04-03 20:37:00,52.3,19.4,29.12,NNE,29,0.0,3.1,27,0.00,,SKC,0.00,VWS V14.00,2013-04-04 00:37:00,
2013-04-03 20:42:00,52.2,19.2,29.12,NNE,12,3.2,3.6,27,0.00,,SKC,0.00,VWS V14.00,2013-04-04 00:42:00,
2013-04-03 20:47:00,52.2,19.2,29.12,NE,44,2.7,5.4,27,0.00,,SKC,0.00,VWS V14.00,2013-04-04 00:47:00,
2013-04-03 20:52:00,52.0,19.1,29.12,NNE,29,0.0,3.6,27,0.00,,SKC,0.00,VWS V14.00,2013-04-04 00:52:00,
2013-04-03 20:57:00,52.0,19.1,29.12,North,6,0.0,5.8,27,0.00,,SKC,0.00,VWS V14.00,2013-04-04 00:57:00,
2013-04-03 21:02:00,51.8,18.9,29.12,NNE,27,3.2,3.6,27,0.00,,SKC,0.00,VWS V14.00,2013-04-04 01:02:00,
2013-04-03 21:07:00,51.8,18.9,29.12,North,357,0.0,3.6,27,0.00,,SKC,0.00,VWS V14.00,2013-04-04 01:07:00,
2013-04-03 21:12:00,51.6,18.8,29.12,NNE,28,0.0,7.6,27,0.00,,SKC,0.00,VWS V14.00,2013-04-04 01:12:00,
2013-04-03 21:17:00,51.6,18.8,29.12,North,357,0.0,7.6,27,0.00,,SKC,0.00,VWS V14.00,2013-04-04 01:17:00,
2013-04-03 21:22:00,51.6,18.8,29.12,NE,45,0.0,0.0,27,0.00,,SKC,0.00,VWS V14.00,2013-04-04 01:22:00,
2013-04-03 21:27:00,51.3,18.4,29.12,NNE,22,0.0,2.7,27,0.00,,SKC,0.00,VWS V14.00,2013-04-04 01:27:00,
2013-04-03 21:32:00,51.1,18.3,29.15,NNE,30,2.7,3.6,27,0.00,,SKC,0.00,VWS V14.00,2013-04-04 01:32:00,
2013-04-03 21:37:00,51.1,18.3,29.15,North,11,0.0,4.0,27,0.00,,SKC,0.00,VWS V14.00,2013-04-04 01:37:00,
2013-04-03 21:42:00,50.9,18.1,29.15,NNE,12,0.0,3.6,27,0.00,,SKC,0.00,VWS V14.00,2013-04-04 01:42:00,
2013-04-03 21:47:00,51.1,18.3,29.15,NNE,15,0.0,4.0,27,0.00,,SKC,0.00,VWS V14.00,2013-04-04 01:47:00,
2013-04-03 21:52:00,51.1,19.1,29.15,NNW,327,0.0,2.7,28,0.00,,SKC,0.00,VWS V14.00,2013-04-04 01:52:00,
2013-04-03 21:57:00,51.1,19.1,29.15,NNE,24,3.2,3.2,28,0.00,,SKC,0.00,VWS V14.00,2013-04-04 01:57:00,
2013-04-03 22:02:00,50.9,19.0,29.15,NNE,24,0.0,4.9,28,0.00,,SKC,0.00,VWS V14.00,2013-04-04 02:02:00,
2013-04-03 22:07:00,50.9,19.0,29.15,NNE,28,3.8,4.9,28,0.00,,SKC,0.00,VWS V14.00,2013-04-04 02:07:00,
2013-04-03 22:13:00,50.9,19.0,29.15,SE,129,0.0,4.0,28,0.00,,SKC,0.00,VWS V14.00,2013-04-04 02:13:00,
2013-04-03 22:18:00,50.9,19.0,29.15,NNE,28,3.2,4.0,28,0.00,,SKC,0.00,VWS V14.00,2013-04-04 02:18:00,
2013-04-03 22:23:00,50.9,19.0,29.15,NNE,12,0.0,3.1,28,0.00,,SKC,0.00,VWS V14.00,2013-04-04 02:23:00,
2013-04-03 22:28:00,50.9,19.0,29.15,ENE,68,3.8,5.8,28,0.00,,SKC,0.00,VWS V14.00,2013-04-04 02:28:00,
2013-04-03 22:33:00,50.9,19.0,29.15,NNE,18,0.0,4.0,28,0.00,,SKC,0.00,VWS V14.00,2013-04-04 02:33:00,
2013-04-03 22:38:00,50.7,18.8,29.15,NNE,19,4.8,4.9,28,0.00,,SKC,0.00,VWS V14.00,2013-04-04 02:38:00,
2013-04-03 22:43:00,50.7,18.8,29.15,NE,43,2.7,5.8,28,0.00,,SKC,0.00,VWS V14.00,2013-04-04 02:43:00,
2013-04-03 22:48:00,50.5,18.7,29.12,North,7,0.0,5.8,28,0.00,,SKC,0.00,VWS V14.00,2013-04-04 02:48:00,
2013-04-03 22:53:00,50.5,18.7,29.12,NNE,12,0.0,2.7,28,0.00,,SKC,0.00,VWS V14.00,2013-04-04 02:53:00,
2013-04-03 22:58:00,50.5,18.7,29.12,NNE,28,0.0,5.4,28,0.00,,SKC,0.00,VWS V14.00,2013-04-04 02:58:00,
2013-04-03 23:03:00,50.4,18.5,29.12,NNE,21,3.8,3.8,28,0.00,,SKC,0.00,VWS V14.00,2013-04-04 03:03:00,
2013-04-03 23:08:00,50.4,18.5,29.12,NE,39,2.7,3.6,28,0.00,,SKC,0.00,VWS V14.00,2013-04-04 03:08:00,
2013-04-03 23:13:00,50.4,18.5,29.12,North,357,0.0,4.0,28,0.00,,SKC,0.00,VWS V14.00,2013-04-04 03:13:00,
2013-04-03 23:18:00,50.5,18.7,29.12,NNW,341,0.0,4.0,28,0.00,,SKC,0.00,VWS V14.00,2013-04-04 03:18:00,
2013-04-03 23:23:00,50.5,18.7,29.12,WNW,285,0.0,4.9,28,0.00,,SKC,0.00,VWS V14.00,2013-04-04 03:23:00,
2013-04-03 23:28:00,50.5,18.7,29.12,WNW,292,3.2,4.9,28,0.00,,SKC,0.00,VWS V14.00,2013-04-04 03:28:00,
2013-04-03 23:33:00,50.5,18.7,29.12,NNE,21,0.0,4.0,28,0.00,,SKC,0.00,VWS V14.00,2013-04-04 03:33:00,
2013-04-03 23:38:00,50.5,18.7,29.12,NNW,335,0.0,4.0,28,0.00,,SKC,0.00,VWS V14.00,2013-04-04 03:38:00,
2013-04-03 23:43:00,50.5,18.7,29.12,North,9,2.7,3.1,28,0.00,,SKC,0.00,VWS V14.00,2013-04-04 03:43:00,
2013-04-03 23:48:00,50.5,18.7,29.12,NNE,17,2.7,4.0,28,0.00,,SKC,0.00,VWS V14.00,2013-04-04 03:48:00,
2013-04-03 23:53:00,50.4,18.5,29.12,North,5,4.3,4.3,28,0.00,,SKC,0.00,VWS V14.00,2013-04-04 03:53:00,
2013-04-03 23:58:00,50.4,18.5,29.12,NNE,17,0.0,4.0,28,0.00,,SKC,0.00,VWS V14.00,2013-04-04 03:58:00,